Vertical_Velocity
-0 0 -0 -0 0 -2 -1 1 -2 1 2 1 -2 -0 0 1 1 -1 -1 -1 -1 -0 0 4 2 -1 3 -0 -4 5 4 -5 -1 6 2 -1 0 0 -1 1 1 0 1
0 -2 -2 -2 -2 -2 -4 0 1 1 0 3 5 0 1 1 0 7 -0 -2 -1 0 0 -0 0 4 -3 -1 2 1 6 -2 -2 1 1 -1 1 -1 0 2 2 1 2
-1 -1 -4 -3 -2 -2 -1 1 12 -1 -1 -1 -1 -1 -1 -2 -1 1 -1 0 -1 1 -0 -0 -1 3 -1 -1 -2 -7 -1 7 -5 2 2 -1 1 1 1 2 3 2 3
0 0 -0 -2 -1 1 1 1 6 1 -1 3 1 -2 0 -0 0 -0 -1 -0 0 -1 -0 -2 -2 1 -0 -1 -1 1 -3 8 -3 1 2 -0 1 2 2 2 1 2 2
1 -1 0 -1 -0 0 7 -1 -0 -0 -0 0 -0 -0 -1 1 -0 -0 0 0 1 2 0 -0 -3 -0 -0 -0 3 1 -3 4 -2 1 2 -0 -0 1 -4 -0 5 2 -1
-1 -2 -2 -2 -0 2 -1 1 -0 1 1 2 0 0 0 1 1 0 1 1 -0 2 0 -0 -2 0 -1 -0 1 4 -7 -3 -4 -2 1 -1 -1 1 1 5 1 0 4
-2 -1 -3 -0 0 -3 -2 -3 0 -2 -2 -0 1 1 1 1 2 1 2 1 1 2 0 -1 0 -1 -0 -1 2 1 -9 2 5 -1 -2 -1 -0 -2 -0 1 -6 4 4
-1 -3 -1 -3 -1 -1 -1 1 -0 -3 -0 -3 0 -0 0 1 1 1 -1 3 1 2 0 1 -1 1 1 -2 6 2 -1 -3 11 5 1 2 -3 2 -3 -3 -3 -2 0
-1 -4 -1 -1 -0 -2 -1 -1 2 -2 -1 2 3 0 0 -1 2 3 2 2 2 0 0 0 2 1 3 -2 -3 1 0 -4 8 1 0 0 0 1 -2 1 -2 0 1
-2 -2 0 1 -0 -4 1 -1 -1 -1 -0 -0 1 3 0 0 -0 0 1 -0 -1 -1 -1 -0 5 -3 4 4 1 -4 -1 -3 -3 -2 -2 2 -1 0 -0 -8 -0 -0 2
-0 -1 0 -0 -0 3 -1 0 1 -2 -0 1 -1 -0 -1 -1 1 -0 1 0 -1 2 1 2 8 -3 5 1 3 1 -6 -4 -1 0 2 0 -4 3 3 -9 -4 -3 -2
-3 -1 -1 0 4 2 1 1 0 -1 -0 -1 -0 -0 2 -0 0 -1 -2 1 0 0 -0 4 7 -1 3 3 4 -0 3 1 -0 -1 1 -4 4 1 -5 1 2 -5 -3
-3 -0 -0 1 2 2 1 -1 -2 -1 0 1 -1 3 2 0 -0 -2 -0 -0 0 0 -1 4 5 3 10 4 -0 -2 -0 -0 -2 -0 -4 1 2 0 -1 -2 1 1 -1
1 0 -0 -0 1 -1 -0 1 1 0 2 -1 2 -1 1 0 -1 3 3 3 0 0 0 -1 2 5 3 1 0 2 -1 0 0 0 -0 2 0 -2 4 2 -2 4 2
2 1 -1 -1 -0 1 -2 -2 -0 4 2 3 1 -0 1 1 0 -1 -1 -0 1 2 -4 -2 0 4 -3 -3 -3 -2 -1 -0 0 -2 1 1 -1 2 1 1 3 -0 -2
0 -1 -2 -2 -1 1 1 1 -0 -0 2 1 1 1 -1 1 4 2 1 0 0 -1 -2 -3 -2 -1 -2 -1 -1 -0 1 1 1 0 -0 -3 -3 -2 -1 3 2 6 3
-1 1 1 -1 -1 -3 -2 0 -1 1 -0 -1 0 0 -0 -1 4 3 -1 -2 -2 2 0 -1 -1 -2 -2 -2 -1 -1 -0 -3 -3 1 -3 -3 1 -1 -2 1 1 3 0
2 1 1 -1 -2 -1 -1 -1 2 -1 -0 1 -1 0 -1 -0 0 0 -2 2 1 2 2 0 -1 -2 -1 0 -0 -1 -1 -1 -3 -4 2 1 -1 -2 -1 -2 -2 2 1
-1 -0 1 1 1 1 0 -1 1 0 1 4 4 2 1 1 -1 -2 -3 -1 -1 -0 -0 -0 -0 -1 -1 -1 -1 -1 0 -1 -1 -0 2 1 -1 1 -2 -2 2 -0 1
2 2 2 1 2 2 0 0 -2 -1 -2 -1 2 2 3 1 -0 -1 -0 0 0 0 0 -1 -3 -3 -2 -2 -0 -0 -2 -2 -0 1 4 3 3 0 -3 -0 2 -1 -1
1 2 2 2 1 1 3 1 -1 -0 -0 -1 0 2 4 3 -0 -1 -1 -2 -1 -1 -0 0 -0 -2 -3 -3 -3 -2 -1 -1 -2 0 3 -3 -1 -2 -1 -11 -4 -0 0
-0 0 0 -1 2 3 -0 3 2 2 0 1 1 3 3 3 2 2 2 0 0 1 3 -0 1 2 0 -0 1 1 -1 -1 -1 -1 -3 3 -1 -1 -4 -0 -4 -2 -3
1 -1 -1 0 0 2 3 -2 0 2 4 3 3 3 1 1 4 3 4 5 6 3 1 0 1 -3 -2 2 2 2 -1 0 2 -2 -0 3 3 3 -1 1 0 -1 -2
1 0 -1 1 0 -0 -1 0 3 1 -3 1 3 1 2 2 1 2 4 3 2 1 2 2 -1 1 3 1 -4 -1 4 -0 -2 -0 -1 1 2 -0 0 -0 -1 1 1
0 1 1 -0 -1 -0 1 1 1 3 1 1 -4 0 2 2 4 5 4 3 4 3 2 2 3 2 2 2 4 -1 -3 -1 0 -0 1 0 2 -1 2 3 2 1 1
-1 -0 -0 1 1 1 1 -0 -1 -0 2 1 2 1 -1 -2 -2 1 4 4 4 4 5 3 1 2 0 3 1 1 3 2 1 2 1 1 2 1 1 1 1 0 1
Height
1488 1482 1477 1473 1468 1463 1458 1454 1450 1447 1445 1442 1440 1438 1437 1436 1436 1437 1439 1441 1442 1444 1447 1452 1457 1463 1469 1473 1478 1483 1490 1495 1499 1501 1501 1503 1506 1507 1508 1510 1513 1516 1518
1484 1479 1474 1469 1463 1458 1453 1449 1445 1441 1439 1436 1434 1432 1431 1429 1429 1429 1431 1433 1435 1437 1439 1443 1448 1455 1461 1467 1472 1476 1483 1489 1495 1497 1499 1501 1503 1504 1506 1508 1511 1514 1516
1482 1477 1471 1465 1460 1455 1450 1445 1440 1437 1434 1431 1429 1426 1424 1422 1421 1422 1424 1427 1429 1431 1432 1436 1440 1446 1453 1460 1466 1471 1476 1485 1490 1494 1497 1499 1501 1503 1505 1507 1510 1512 1514
1479 1475 1469 1462 1457 1452 1447 1442 1437 1434 1431 1428 1424 1421 1418 1416 1415 1415 1417 1420 1423 1425 1427 1430 1434 1437 1443 1453 1460 1466 1472 1479 1486 1491 1494 1496 1499 1501 1503 1506 1508 1511 1513
1478 1472 1467 1460 1455 1449 1444 1439 1435 1432 1428 1424 1421 1417 1414 1412 1410 1410 1410 1413 1416 1419 1422 1425 1428 1432 1436 1445 1454 1461 1467 1474 1482 1487 1490 1493 1496 1498 1501 1504 1507 1509 1510
1476 1471 1465 1459 1453 1447 1441 1437 1434 1430 1426 1421 1418 1415 1411 1407 1405 1404 1404 1407 1410 1413 1417 1421 1424 1427 1431 1438 1448 1456 1464 1470 1478 1483 1487 1490 1494 1496 1499 1502 1504 1507 1509
1475 1469 1464 1458 1452 1446 1441 1436 1433 1429 1424 1420 1417 1413 1408 1404 1400 1397 1399 1403 1407 1410 1414 1417 1419 1422 1427 1435 1444 1453 1461 1469 1476 1481 1484 1488 1491 1494 1497 1499 1502 1504 1507
1475 1470 1465 1459 1453 1447 1441 1437 1433 1428 1424 1420 1416 1412 1408 1404 1400 1398 1399 1403 1406 1409 1413 1414 1417 1421 1426 1433 1442 1450 1459 1467 1475 1479 1483 1486 1489 1492 1495 1498 1501 1502 1504
1475 1470 1465 1460 1454 1448 1442 1437 1433 1428 1424 1421 1417 1413 1409 1406 1404 1402 1403 1404 1407 1410 1411 1414 1416 1421 1426 1432 1440 1449 1458 1465 1472 1477 1481 1484 1487 1491 1493 1497 1499 1501 1503
1477 1472 1467 1462 1456 1449 1444 1439 1434 1430 1426 1422 1419 1415 1411 1409 1407 1407 1407 1408 1409 1410 1412 1415 1418 1422 1428 1434 1442 1450 1456 1464 1470 1475 1479 1483 1486 1489 1492 1496 1498 1500 1501
1479 1474 1469 1464 1458 1452 1445 1440 1435 1431 1428 1425 1421 1417 1414 1412 1411 1410 1410 1411 1411 1413 1415 1417 1420 1425 1431 1438 1445 1452 1459 1465 1471 1475 1479 1482 1486 1488 1491 1493 1495 1498 1500
1480 1475 1471 1465 1460 1454 1449 1442 1437 1433 1430 1427 1424 1421 1418 1416 1414 1413 1413 1413 1414 1416 1418 1421 1424 1429 1435 1442 1449 1455 1462 1467 1471 1474 1478 1481 1484 1487 1489 1490 1491 1495 1497
1482 1476 1471 1467 1461 1455 1451 1446 1441 1436 1433 1429 1426 1423 1421 1419 1418 1418 1417 1418 1418 1420 1422 1426 1430 1434 1440 1447 1452 1458 1464 1467 1471 1474 1477 1481 1483 1485 1486 1488 1490 1492 1494
1482 1478 1473 1468 1463 1458 1453 1448 1444 1440 1436 1432 1429 1426 1424 1423 1421 1421 1421 1422 1423 1425 1427 1431 1435 1439 1444 1450 1456 1461 1465 1468 1472 1475 1478 1480 1482 1484 1485 1486 1488 1489 1492
1482 1479 1475 1470 1466 1461 1457 1452 1448 1444 1440 1436 1433 1430 1428 1427 1426 1425 1425 1425 1427 1429 1432 1435 1440 1444 1448 1454 1458 1462 1465 1469 1472 1475 1477 1479 1481 1482 1485 1485 1487 1489 1492
1484 1480 1477 1473 1468 1464 1460 1456 1452 1449 1445 1441 1438 1436 1433 1432 1431 1431 1430 1431 1432 1435 1437 1440 1444 1449 1453 1456 1460 1463 1466 1469 1472 1475 1476 1478 1479 1481 1483 1484 1486 1488 1491
1489 1482 1479 1476 1472 1468 1464 1461 1457 1454 1451 1448 1444 1442 1440 1438 1438 1437 1436 1437 1439 1441 1442 1444 1448 1452 1456 1459 1462 1464 1467 1470 1472 1474 1476 1477 1478 1480 1481 1483 1484 1486 1489
1493 1487 1482 1479 1475 1472 1468 1465 1462 1459 1456 1453 1450 1448 1447 1446 1444 1444 1444 1445 1445 1447 1448 1449 1452 1455 1458 1460 1463 1465 1467 1470 1473 1474 1475 1476 1477 1478 1480 1482 1484 1486 1488
1498 1492 1487 1481 1479 1476 1472 1470 1467 1464 1461 1458 1456 1454 1452 1451 1451 1450 1450 1450 1450 1451 1453 1455 1456 1458 1460 1462 1464 1466 1468 1470 1472 1473 1474 1474 1475 1476 1478 1481 1482 1484 1486
1502 1498 1493 1488 1482 1479 1477 1474 1471 1469 1467 1464 1461 1458 1457 1456 1455 1454 1454 1454 1454 1455 1455 1456 1458 1459 1460 1462 1464 1466 1468 1470 1471 1471 1472 1472 1473 1475 1477 1479 1481 1483 1485
1505 1501 1497 1493 1488 1483 1480 1478 1476 1474 1472 1470 1467 1465 1462 1461 1460 1459 1458 1457 1456 1456 1456 1455 1456 1459 1461 1463 1464 1466 1467 1468 1469 1470 1471 1472 1473 1475 1476 1479 1480 1482 1484
1509 1505 1500 1497 1493 1489 1485 1482 1479 1478 1476 1474 1471 1469 1467 1465 1463 1462 1460 1459 1459 1458 1458 1458 1458 1459 1461 1462 1463 1464 1465 1466 1467 1468 1469 1469 1471 1473 1475 1476 1479 1481 1484
1513 1509 1505 1501 1497 1494 1491 1487 1484 1480 1478 1477 1474 1472 1470 1468 1466 1464 1462 1460 1459 1458 1458 1457 1458 1458 1459 1459 1460 1461 1462 1464 1465 1466 1466 1467 1468 1470 1472 1475 1476 1479 1481
1517 1512 1509 1505 1501 1498 1494 1491 1488 1486 1482 1478 1476 1475 1472 1470 1467 1465 1463 1461 1459 1457 1455 1454 1454 1454 1455 1456 1458 1458 1459 1461 1462 1463 1464 1463 1465 1468 1469 1472 1474 1476 1478
1522 1517 1512 1508 1505 1501 1498 1495 1492 1489 1486 1483 1478 1476 1475 1472 1469 1466 1463 1461 1459 1457 1454 1452 1451 1452 1453 1454 1454 1456 1457 1458 1459 1460 1460 1461 1462 1464 1466 1468 1470 1473 1475
1526 1522 1518 1513 1509 1505 1501 1499 1495 1492 1489 1486 1484 1481 1478 1475 1472 1469 1465 1462 1459 1457 1454 1452 1451 1452 1451 1452 1453 1453 1454 1455 1455 1456 1456 1457 1458 1460 1462 1465 1467 1470 1472